Location: Unspecified
(0.0000°N, 0.0000°E)
Time: 11:44:21
(UTC+02:00)

Meteor 2-8 Rocket - Visible Passes

Search period start: 02 April 2015 00:00
Search period end: 12 April 2015 00:00
Orbit: 938 x 957 km, 82.5° (Epoch: 01 April)

Date Brightness Start Highest point End Pass type
(mag) Time Alt. Az. Time Alt. Az. Time Alt. Az.
02 Apr 5.4 21:57:00 10° SSW 22:02:48 45° W 22:08:34 10° NNW visible
03 Apr 5.4 20:30:18 10° SSE 20:35:03 25° E 20:40:02 10° NE visible
03 Apr 6.5 22:14:51 10° SW 22:19:47 25° W 22:24:32 10° NNW visible
04 Apr 4.7 20:46:17 10° SSE 20:52:02 45° E 20:57:52 10° NNE visible
04 Apr 7.3 22:33:57 10° WSW 22:36:51 13° W 22:39:13 10° WNW visible
05 Apr 4.4 21:02:50 10° S 21:08:58 82° E 21:15:06 10° N visible
06 Apr 5.1 21:19:54 10° SSW 21:25:53 56° W 21:31:50 10° N visible
07 Apr 6.3 21:37:30 10° SSW 21:42:50 30° W 21:48:02 10° NNW visible
08 Apr 7.2 21:55:58 10° SW 21:59:52 17° W 22:03:23 10° NW visible
09 Apr 7.9 07:28:52 10° ENE 07:31:05 13° E 07:33:49 10° ESE visible
09 Apr 4.4 20:25:59 10° S 20:32:02 67° E 20:38:08 10° NNE visible
10 Apr 4.8 20:42:51 10° S 20:48:58 69° W 20:55:03 10° N visible
11 Apr 6.0 21:00:15 10° SSW 21:05:54 38° W 21:11:28 10° NNW visible
